TimeEST,TemperatureF,Dew PointF,Humidity,Sea Level PressureIn,VisibilityMPH,Wind Direction,Wind SpeedMPH,Gust SpeedMPH,PrecipitationIn,Events,Conditions,WindDirDegrees,DateUTC
12:53 AM,33.1,27.0,78,30.05,10.0,WNW,3.5,-,N/A,,Clear,290,2012-11-26 05:53:00
1:53 AM,33.1,27.0,78,30.06,10.0,WNW,4.6,-,N/A,,Overcast,300,2012-11-26 06:53:00
2:53 AM,32.0,27.0,82,30.07,10.0,NW,4.6,-,N/A,,Overcast,310,2012-11-26 07:53:00
3:53 AM,32.0,27.0,82,30.10,10.0,NW,4.6,-,N/A,,Overcast,310,2012-11-26 08:53:00
4:53 AM,32.0,27.0,82,30.12,10.0,Calm,Calm,-,N/A,,Scattered Clouds,0,2012-11-26 09:53:00
5:53 AM,28.0,24.1,85,30.14,9.0,Calm,Calm,-,N/A,,Clear,0,2012-11-26 10:53:00
6:53 AM,25.0,23.0,92,30.17,7.0,Calm,Calm,-,N/A,,Clear,0,2012-11-26 11:53:00
7:53 AM,24.1,21.0,88,30.18,3.0,Calm,Calm,-,N/A,,Clear,0,2012-11-26 12:53:00
8:53 AM,30.9,28.0,89,30.21,4.0,Calm,Calm,-,N/A,,Clear,0,2012-11-26 13:53:00
9:53 AM,36.0,28.0,73,30.22,8.0,Calm,Calm,-,N/A,,Clear,0,2012-11-26 14:53:00
10:53 AM,37.9,26.1,62,30.22,10.0,Calm,Calm,-,N/A,,Clear,0,2012-11-26 15:53:00
11:53 AM,39.0,26.1,60,30.20,10.0,Variable,4.6,-,N/A,,Scattered Clouds,0,2012-11-26 16:53:00
12:53 PM,41.0,27.0,57,30.19,10.0,NW,3.5,-,N/A,,Scattered Clouds,320,2012-11-26 17:53:00
1:53 PM,43.0,26.1,51,30.19,10.0,SW,9.2,-,N/A,,Clear,220,2012-11-26 18:53:00
2:53 PM,44.1,25.0,47,30.19,10.0,Variable,5.8,-,N/A,,Scattered Clouds,0,2012-11-26 19:53:00
3:53 PM,44.1,25.0,47,30.18,10.0,West,3.5,-,N/A,,Overcast,270,2012-11-26 20:53:00
4:53 PM,42.1,26.1,53,30.19,10.0,NNW,6.9,-,N/A,,Overcast,340,2012-11-26 21:53:00
5:53 PM,39.0,30.9,73,30.21,9.0,North,10.4,-,N/A,,Overcast,360,2012-11-26 22:53:00
6:53 PM,37.9,30.0,73,30.23,9.0,North,9.2,-,N/A,,Overcast,360,2012-11-26 23:53:00
7:53 PM,37.0,28.9,73,30.24,10.0,North,8.1,-,N/A,,Overcast,10,2012-11-27 00:53:00
8:53 PM,36.0,28.9,76,30.25,10.0,Calm,Calm,-,N/A,,Overcast,0,2012-11-27 01:53:00
9:53 PM,35.1,30.0,82,30.25,10.0,North,6.9,-,N/A,,Overcast,10,2012-11-27 02:53:00
10:31 PM,33.8,30.2,87,30.24,2.0,North,15.0,-,0.00,Snow,Light Snow,350,2012-11-27 03:31:00
10:53 PM,32.0,30.0,92,30.29,2.5,North,11.5,-,0.00,Snow,Light Snow,360,2012-11-27 03:53:00
11:03 PM,32.0,30.2,93,30.26,1.5,North,13.8,-,0.00,Snow,Light Snow,360,2012-11-27 04:03:00
11:34 PM,30.2,28.4,93,30.25,2.5,North,13.8,-,0.00,Snow,Light Snow,360,2012-11-27 04:34:00
11:40 PM,30.2,28.4,93,30.25,3.0,North,12.7,-,0.00,Snow,Light Snow,360,2012-11-27 04:40:00
11:51 PM,30.2,28.4,93,30.26,2.5,North,13.8,-,0.00,Snow,Light Snow,350,2012-11-27 04:51:00
11:53 PM,30.9,28.9,92,30.29,2.5,North,13.8,-,0.00,Snow,Light Snow,350,2012-11-27 04:53:00